Wind_Speed
74 65 52 40 24 15 15 23 29 34 42 50 58 66 61 65 65 62 61 59 54 48 44 41 38 44 43 45 50 45 35 36 37 48 54 52 42 44 38 40 39 36 31 31
71 62 49 36 21 13 14 20 23 31 37 39 45 55 67 69 66 63 58 54 51 46 44 43 40 40 42 45 47 34 37 39 42 43 39 34 36 33 29 25 29 24 18 13
68 59 45 31 19 11 11 18 21 27 31 35 41 45 58 65 68 61 58 54 49 47 45 39 37 42 44 41 35 34 41 39 35 20 20 25 17 12 5 15 21 11 6 8
65 55 41 25 15 9 12 16 18 24 29 35 43 47 55 60 62 59 55 53 52 47 43 38 42 45 40 33 31 39 37 27 20 20 17 15 3 6 14 16 14 13 11 10
61 52 37 22 10 6 10 13 17 22 24 29 33 33 38 39 52 53 57 57 53 47 43 41 45 41 31 30 36 33 25 27 32 35 9 9 12 14 14 12 15 9 6 4
58 49 34 19 9 4 10 13 16 17 19 22 24 28 31 37 44 51 56 55 50 48 45 44 37 29 28 34 34 29 24 38 33 18 18 9 4 10 17 16 9 5 4 2
54 45 31 18 8 4 9 16 22 23 24 25 27 27 30 34 37 40 44 45 45 45 38 32 28 28 31 34 31 27 45 37 27 22 13 15 4 6 12 4 4 5 6 7
50 40 27 16 7 5 10 15 19 23 25 27 30 31 32 33 35 38 39 37 34 32 27 24 30 34 35 29 34 38 50 42 32 34 24 19 3 11 11 8 10 8 7 11
47 37 24 13 7 8 14 17 19 25 30 32 32 32 33 35 35 36 35 31 24 20 24 33 35 34 30 39 45 58 48 42 33 20 25 27 24 13 7 2 4 4 5 17
43 32 21 10 8 12 14 18 25 28 30 32 36 37 41 42 39 31 26 22 19 24 26 27 24 24 41 47 50 54 46 42 31 28 21 22 11 12 5 7 6 5 14 20
41 30 17 8 7 12 17 23 29 33 35 40 45 45 41 36 31 26 23 20 19 18 17 22 31 35 38 38 41 49 49 38 26 26 25 7 8 6 3 3 4 8 16 25
37 25 13 7 9 17 23 29 36 40 42 48 45 42 36 32 30 26 20 18 19 23 28 39 39 36 36 28 25 24 23 39 19 22 14 10 11 8 7 6 5 11 15 25
33 20 9 8 15 20 29 35 42 47 51 48 44 38 35 31 29 24 22 21 23 33 39 40 39 33 26 23 15 14 15 16 21 15 14 9 9 10 11 12 9 10 22 25
27 14 8 12 18 23 33 42 47 52 50 46 42 37 32 30 29 24 25 24 29 33 40 38 37 34 27 21 15 13 11 9 8 13 13 11 10 10 13 14 13 13 19 28
21 8 10 15 22 29 39 47 50 51 48 44 40 37 31 31 30 27 27 27 27 30 32 32 29 25 21 16 10 10 8 8 9 12 12 10 8 9 11 14 14 16 19 23
15 8 14 20 26 33 43 54 50 50 46 42 39 34 31 30 29 28 27 27 25 22 21 24 23 20 17 15 12 10 9 8 8 10 9 9 10 11 13 14 16 18 21 25
10 9 18 23 31 40 48 54 52 50 45 40 36 32 30 29 29 26 24 24 24 23 20 19 19 19 18 17 17 14 13 12 12 10 9 9 10 10 11 14 16 19 23 26
8 12 21 25 35 42 48 52 52 50 45 39 34 30 31 31 29 27 23 20 18 19 21 22 22 22 21 20 17 15 13 11 10 8 8 8 8 9 11 13 16 19 21 23
6 14 22 27 35 41 50 55 53 51 46 40 36 32 32 32 31 29 27 25 22 22 22 23 23 20 17 15 11 12 12 11 9 8 8 9 9 9 9 10 12 14 16 18
5 15 25 30 32 40 51 57 56 53 48 42 38 33 33 33 33 31 31 29 27 26 25 23 22 19 15 12 9 10 12 13 12 12 12 13 14 15 15 15 16 16 17 19
5 14 24 29 29 36 49 59 56 54 50 46 41 39 36 36 34 34 34 32 31 32 30 28 26 21 19 19 18 18 19 18 18 17 17 19 17 16 15 16 18 19 20 22
8 16 22 26 27 34 49 60 58 57 54 51 46 42 40 39 39 37 35 34 34 33 32 32 29 26 27 28 26 25 25 25 24 23 23 23 22 21 21 22 22 21 23 25
8 14 21 25 26 37 52 64 66 63 62 57 53 49 44 43 42 40 39 38 37 34 33 31 29 30 30 29 29 28 27 25 23 21 20 19 19 20 21 24 26 29 32 34
10 12 20 23 29 41 59 68 68 67 62 58 56 53 52 48 46 44 43 40 39 39 38 35 33 32 31 30 29 28 27 25 25 24 25 26 26 27 32 35 36 37 39 43
13 12 17 24 33 44 54 64 69 69 66 63 60 57 56 55 52 49 45 44 44 43 40 40 38 37 36 36 35 33 33 32 32 32 33 34 35 39 36 36 37 37 36 38
14 16 22 27 30 39 49 56 68 72 70 70 67 64 62 60 57 54 50 49 50 46 43 41 39 37 36 37 38 40 40 41 42 42 43 42 41 39 37 35 34 35 36 36
16 18 28 34 36 38 48 52 61 72 76 74 73 71 69 65 62 60 56 57 55 50 46 42 40 38 38 40 40 40 41 41 41 41 41 42 40 38 37 37 37 37 38 39
Wind_Direction
342 340 339 333 322 296 247 214 211 213 211 211 209 212 207 208 211 213 216 218 222 227 230 236 244 253 258 262 265 274 268 272 283 288 291 290 287 291 284 279 277 277 271 263
343 342 341 333 327 299 241 208 204 205 207 209 212 210 208 209 213 213 215 219 221 224 230 237 243 251 255 258 267 265 273 281 289 286 270 259 275 261 267 277 281 277 279 256
343 344 341 335 328 293 230 202 197 199 197 197 204 208 210 209 215 216 217 221 223 225 231 236 245 249 254 261 260 270 277 288 293 245 235 252 229 263 329 352 320 330 20 52
343 344 342 336 327 274 195 196 189 190 194 201 206 209 211 213 216 220 219 223 226 230 235 238 241 248 255 255 267 274 286 295 186 181 182 257 21 13 3 360 355 353 27 51
342 343 343 336 332 274 201 188 190 191 193 198 204 207 213 213 216 219 221 225 229 232 234 236 242 246 242 257 267 277 280 171 189 207 167 102 42 7 356 4 9 9 353 105
341 341 342 332 319 252 191 183 177 177 182 185 190 195 194 200 206 211 217 223 224 229 231 233 234 234 252 260 268 262 191 182 192 157 199 98 360 46 34 46 27 349 314 180
340 340 338 323 306 229 195 183 179 177 180 180 184 186 189 194 200 205 212 214 215 216 220 218 231 246 251 258 247 210 175 187 178 149 210 144 239 76 61 360 67 50 253 206
338 338 334 315 286 189 187 190 185 174 175 175 177 181 182 183 189 192 197 200 199 198 212 228 238 241 248 229 199 180 183 192 172 163 174 160 191 134 106 68 41 102 182 193
336 336 335 306 264 187 184 180 175 170 176 172 169 165 165 166 164 161 166 176 188 202 224 234 239 239 219 187 176 171 186 191 177 175 186 177 183 202 165 134 289 103 175 177
334 334 331 294 237 199 180 174 169 169 173 166 158 152 151 153 154 159 169 178 193 215 228 235 228 196 171 174 179 187 193 181 189 195 179 186 196 209 285 257 261 203 194 185
331 331 330 279 229 189 178 176 171 167 167 157 150 151 154 152 155 163 168 180 194 200 208 147 156 145 153 167 183 192 197 199 193 198 194 198 284 217 231 240 205 197 202 194
329 329 322 245 197 182 170 169 166 162 158 155 155 156 154 158 159 159 166 178 176 167 150 135 133 137 142 125 139 146 192 214 206 209 168 144 146 156 178 211 189 182 198 200
326 324 300 213 186 179 171 171 167 163 161 161 159 156 162 159 157 158 163 152 154 159 140 130 125 121 135 145 142 137 165 143 169 182 197 209 234 219 209 197 194 200 204 206
323 316 255 201 181 174 171 173 170 166 163 166 162 164 162 160 160 163 160 147 144 146 136 130 129 127 127 124 133 141 172 170 193 222 227 236 237 197 187 191 202 214 214 212
318 295 221 196 182 179 176 176 175 170 170 169 167 169 163 167 166 166 156 157 158 149 142 139 134 136 148 153 150 140 154 174 206 214 223 221 214 200 189 193 204 217 224 219
314 264 207 192 186 184 180 180 179 175 175 169 174 172 166 173 174 167 160 163 158 152 148 144 142 148 160 171 174 185 168 187 206 216 220 223 227 225 208 203 203 211 224 232
297 226 199 190 185 186 185 186 182 178 178 174 182 174 169 177 183 174 164 163 160 158 158 164 165 171 177 174 181 173 170 187 195 190 196 211 214 217 219 216 215 219 224 229
284 209 198 189 189 190 190 190 186 182 181 176 186 182 173 180 185 180 173 166 165 164 165 166 168 172 171 171 173 171 179 187 191 190 195 204 209 216 217 215 215 218 223 230
274 201 198 193 194 194 192 192 189 186 184 183 190 189 180 183 190 190 182 172 169 173 173 173 176 176 171 171 179 186 189 189 198 215 230 241 248 246 240 237 235 237 235 235
254 203 195 197 199 195 193 194 192 189 188 188 193 200 190 190 193 193 193 187 185 187 189 190 196 197 195 189 199 211 212 214 221 228 235 245 249 252 255 256 252 247 249 253
238 203 201 202 198 197 195 196 196 193 193 193 195 206 202 198 198 199 201 204 200 198 199 204 207 209 219 224 223 230 233 235 238 238 234 232 232 232 240 247 252 254 251 251
258 208 208 206 197 198 197 198 200 200 199 197 200 203 211 207 205 204 204 205 211 214 213 214 216 221 223 226 229 232 237 238 238 241 245 250 254 256 253 255 255 257 263 268
274 222 209 211 201 202 201 201 205 205 206 203 200 203 208 211 212 211 209 208 209 212 218 217 213 219 224 227 233 238 236 242 242 243 249 256 264 271 275 277 279 280 278 276
273 229 215 210 204 208 208 208 209 211 212 211 208 208 207 211 214 216 218 218 218 217 220 225 223 223 226 229 232 236 242 246 249 253 255 258 260 266 276 279 278 279 282 282
284 226 206 206 211 213 215 214 213 215 215 216 214 213 216 215 213 213 217 222 224 225 227 231 231 232 234 237 240 241 247 252 255 258 261 265 270 277 274 275 278 279 283 294
291 243 205 206 215 223 223 219 217 217 221 222 221 218 219 221 222 218 215 220 225 225 223 226 230 234 238 242 246 249 252 254 257 259 261 263 263 264 267 270 275 281 287 293
302 261 229 208 205 217 226 226 223 222 223 224 227 226 225 228 230 230 224 225 229 232 231 232 234 234 235 238 241 243 246 248 250 252 255 258 260 262 265 269 275 279 283 288
Height
10272 10258 10244 10233 10227 10224 10225 10229 10236 10244 10253 10265 10279 10293 10316 10323 10331 10344 10358 10368 10382 10393 10402 10408 10416 10415 10421 10421 10418 10421 10422 10422 10423 10419 10411 10403 10402 10395 10389 10381 10373 10367 10361 10357
10267 10254 10241 10231 10225 10223 10224 10227 10235 10242 10252 10264 10277 10292 10304 10314 10324 10336 10350 10363 10375 10386 10394 10400 10407 10410 10412 10412 10408 10414 10412 10413 10414 10410 10406 10403 10400 10393 10386 10377 10369 10362 10359 10358
10264 10253 10241 10232 10227 10226 10226 10229 10235 10242 10252 10263 10273 10287 10299 10308 10318 10335 10347 10360 10370 10377 10384 10395 10400 10400 10400 10402 10401 10405 10402 10406 10404 10404 10406 10402 10397 10392 10388 10382 10372 10366 10363 10360
10262 10253 10241 10235 10230 10229 10229 10231 10238 10245 10252 10261 10270 10280 10292 10308 10320 10332 10344 10352 10359 10371 10379 10388 10389 10389 10391 10393 10396 10395 10397 10399 10400 10404 10399 10397 10398 10394 10391 10388 10381 10372 10371 10370
10259 10251 10243 10237 10236 10232 10232 10235 10239 10245 10251 10260 10269 10280 10292 10305 10318 10328 10335 10342 10355 10364 10370 10376 10379 10381 10385 10388 10387 10389 10393 10396 10398 10395 10399 10400 10400 10399 10395 10391 10391 10386 10383 10385
10258 10249 10244 10240 10238 10237 10235 10236 10241 10247 10255 10262 10270 10279 10287 10296 10307 10317 10326 10337 10349 10356 10361 10366 10371 10376 10378 10379 10380 10382 10388 10393 10394 10397 10399 10402 10401 10401 10397 10397 10395 10395 10394 10396
10258 10249 10243 10240 10239 10237 10237 10239 10241 10248 10256 10262 10268 10276 10284 10292 10301 10311 10322 10333 10341 10347 10354 10360 10364 10367 10369 10371 10372 10376 10388 10394 10391 10397 10400 10404 10401 10404 10403 10402 10401 10402 10403 10404
10256 10251 10244 10241 10239 10238 10240 10242 10244 10251 10258 10263 10268 10274 10282 10291 10301 10309 10319 10329 10337 10345 10349 10353 10354 10357 10362 10364 10365 10375 10386 10390 10392 10396 10400 10404 10402 10407 10409 10409 10408 10408 10409 10411
10254 10248 10245 10242 10241 10240 10241 10244 10248 10254 10259 10264 10270 10276 10284 10292 10302 10311 10320 10328 10334 10340 10342 10341 10345 10348 10353 10358 10366 10377 10384 10388 10392 10397 10402 10405 10406 10409 10411 10412 10414 10414 10414 10417
10253 10248 10243 10243 10242 10241 10242 10244 10248 10254 10262 10268 10274 10282 10290 10297 10304 10313 10320 10326 10332 10334 10335 10336 10339 10341 10347 10357 10366 10375 10382 10385 10390 10396 10400 10405 10410 10412 10413 10415 10416 10416 10418 10421
10248 10243 10242 10241 10241 10241 10242 10246 10250 10257 10265 10272 10278 10286 10294 10301 10308 10315 10321 10326 10330 10331 10334 10333 10339 10344 10349 10357 10364 10376 10382 10387 10393 10397 10401 10406 10410 10412 10413 10414 10416 10419 10421 10424
10244 10241 10239 10240 10240 10242 10245 10250 10255 10263 10270 10276 10282 10290 10298 10304 10310 10317 10323 10326 10329 10333 10339 10340 10345 10350 10355 10362 10370 10378 10386 10392 10397 10406 10408 10409 10411 10412 10413 10414 10416 10419 10423 10428
10240 10238 10237 10239 10240 10243 10246 10252 10257 10265 10272 10279 10287 10294 10301 10307 10313 10320 10325 10327 10329 10334 10342 10342 10347 10353 10361 10366 10374 10381 10386 10392 10399 10402 10404 10405 10407 10411 10414 10415 10416 10420 10424 10429
10236 10234 10234 10237 10238 10243 10247 10254 10261 10268 10276 10284 10289 10297 10303 10309 10317 10323 10328 10331 10335 10340 10341 10345 10351 10357 10364 10370 10376 10381 10386 10392 10396 10399 10400 10402 10405 10408 10412 10415 10417 10420 10425 10429
10233 10231 10231 10235 10238 10243 10249 10257 10265 10272 10280 10286 10293 10299 10305 10312 10320 10326 10330 10335 10340 10343 10345 10350 10354 10359 10366 10372 10377 10381 10386 10391 10395 10398 10399 10401 10403 10406 10410 10413 10416 10420 10424 10429
10229 10228 10229 10234 10239 10246 10252 10259 10268 10275 10283 10289 10295 10301 10308 10315 10323 10328 10330 10336 10340 10344 10346 10351 10356 10363 10368 10373 10378 10382 10386 10391 10393 10396 10398 10400 10403 10405 10408 10412 10415 10419 10422 10426
10227 10226 10229 10234 10239 10246 10253 10259 10267 10277 10285 10292 10299 10303 10310 10318 10325 10328 10331 10336 10340 10344 10348 10354 10359 10364 10368 10373 10377 10382 10385 10389 10392 10394 10396 10399 10401 10404 10407 10411 10414 10417 10420 10423
10225 10225 10228 10233 10238 10244 10252 10262 10270 10278 10287 10293 10301 10306 10311 10318 10325 10329 10333 10337 10341 10347 10352 10356 10360 10365 10371 10375 10378 10380 10384 10388 10391 10393 10395 10397 10399 10402 10404 10407 10410 10413 10416 10420
10223 10225 10228 10232 10237 10244 10253 10261 10270 10279 10287 10293 10301 10307 10312 10318 10324 10330 10335 10339 10344 10349 10354 10358 10363 10367 10371 10375 10378 10381 10385 10388 10390 10392 10394 10396 10399 10401 10403 10405 10407 10409 10411 10414
10223 10224 10227 10230 10235 10244 10253 10261 10270 10279 10285 10292 10300 10307 10312 10317 10322 10329 10335 10338 10343 10349 10354 10358 10362 10366 10371 10375 10377 10380 10383 10385 10388 10391 10394 10396 10398 10400 10402 10403 10404 10405 10407 10408
10223 10224 10227 10230 10236 10246 10255 10262 10270 10277 10283 10289 10297 10304 10310 10315 10319 10325 10331 10337 10341 10346 10351 10355 10360 10364 10368 10371 10373 10376 10379 10382 10384 10387 10389 10391 10393 10395 10397 10398 10400 10401 10402 10403
10223 10223 10225 10231 10239 10247 10256 10262 10268 10273 10277 10283 10290 10297 10305 10311 10315 10320 10327 10332 10337 10342 10346 10350 10356 10361 10362 10365 10368 10371 10374 10377 10379 10382 10384 10385 10387 10388 10389 10391 10392 10393 10394 10395
10222 10222 10225 10231 10240 10248 10254 10258 10257 10261 10266 10274 10282 10289 10297 10304 10310 10316 10321 10327 10332 10337 10341 10346 10352 10353 10356 10360 10363 10365 10368 10371 10373 10375 10377 10379 10381 10382 10384 10384 10385 10385 10385 10385
10221 10222 10225 10230 10238 10243 10244 10246 10253 10257 10265 10273 10279 10284 10288 10296 10303 10310 10316 10321 10326 10331 10335 10340 10345 10348 10351 10354 10357 10360 10363 10365 10367 10369 10371 10373 10374 10375 10376 10376 10376 10376 10375 10374
10220 10219 10222 10226 10230 10232 10235 10241 10248 10254 10259 10265 10273 10279 10284 10288 10293 10301 10309 10313 10317 10321 10327 10331 10336 10341 10344 10347 10350 10353 10356 10358 10360 10361 10363 10364 10365 10366 10366 10366 10366 10366 10365 10362
10217 10215 10214 10218 10223 10227 10229 10234 10241 10247 10252 10256 10263 10270 10274 10279 10286 10292 10299 10303 10304 10311 10317 10322 10327 10332 10336 10339 10342 10345 10347 10349 10350 10352 10353 10354 10355 10356 10356 10356 10356 10355 10353 10351
10212 10212 10210 10208 10211 10216 10219 10225 10233 10238 10242 10247 10253 10260 10265 10272 10278 10284 10289 10289 10293 10303 10310 10316 10320 10324 10327 10329 10331 10333 10335 10337 10338 10340 10342 10343 10344 10346 10346 10346 10345 10344 10343 10341